TimeEST,TemperatureF,Dew PointF,Humidity,Sea Level PressureIn,VisibilityMPH,Wind Direction,Wind SpeedMPH,Gust SpeedMPH,PrecipitationIn,Events,Conditions,WindDirDegrees,DateUTC
12:56 AM,26.1,23.0,88,30.20,5.0,Calm,Calm,-,N/A,,Clear,0,2012-11-09 05:56:00
1:56 AM,25.0,23.0,92,30.20,6.0,Calm,Calm,-,N/A,,Clear,0,2012-11-09 06:56:00
2:56 AM,25.0,23.0,92,30.21,4.0,Calm,Calm,-,N/A,,Clear,0,2012-11-09 07:56:00
3:56 AM,25.0,23.0,92,30.22,5.0,Calm,Calm,-,N/A,,Clear,0,2012-11-09 08:56:00
4:42 AM,24.8,23.0,93,30.19,2.5,Calm,Calm,-,N/A,,Clear,0,2012-11-09 09:42:00
4:56 AM,25.0,23.0,92,30.23,4.0,Calm,Calm,-,N/A,,Clear,0,2012-11-09 09:56:00
5:35 AM,24.8,23.0,93,30.20,2.5,Calm,Calm,-,N/A,,Clear,0,2012-11-09 10:35:00
5:42 AM,24.8,23.0,93,30.20,3.0,Calm,Calm,-,N/A,,Clear,0,2012-11-09 10:42:00
5:56 AM,25.0,23.0,92,30.25,4.0,Calm,Calm,-,N/A,,Clear,0,2012-11-09 10:56:00
7:21 AM,26.6,24.8,93,30.22,2.0,Calm,Calm,-,N/A,,Mostly Cloudy,0,2012-11-09 12:21:00
7:49 AM,28.4,26.6,93,30.23,1.8,Calm,Calm,-,N/A,,Overcast,0,2012-11-09 12:49:00
7:56 AM,28.0,27.0,96,30.27,1.8,Calm,Calm,-,N/A,,Overcast,0,2012-11-09 12:56:00
8:54 AM,33.8,32.0,93,30.24,2.0,Calm,Calm,-,N/A,,Overcast,0,2012-11-09 13:54:00
8:56 AM,33.1,32.0,96,30.28,2.0,Calm,Calm,-,N/A,,Overcast,0,2012-11-09 13:56:00
9:30 AM,37.4,33.8,87,30.24,3.0,Calm,Calm,-,N/A,,Overcast,0,2012-11-09 14:30:00
9:56 AM,37.9,35.1,89,30.28,4.0,WSW,3.5,-,N/A,,Overcast,240,2012-11-09 14:56:00
10:44 AM,44.6,35.6,71,30.23,5.0,SSW,4.6,-,N/A,,Haze,200,2012-11-09 15:44:00
10:56 AM,44.1,35.1,71,30.27,5.0,South,4.6,-,N/A,,Haze,190,2012-11-09 15:56:00
11:56 AM,48.0,36.0,63,30.24,5.0,SW,6.9,-,N/A,,Haze,220,2012-11-09 16:56:00
12:56 PM,50.0,36.0,59,30.21,6.0,WSW,6.9,-,N/A,,Haze,250,2012-11-09 17:56:00
1:56 PM,52.0,36.0,54,30.20,7.0,SW,4.6,-,N/A,,Clear,220,2012-11-09 18:56:00
2:56 PM,54.0,36.0,51,30.19,8.0,WSW,8.1,-,N/A,,Clear,240,2012-11-09 19:56:00
3:56 PM,53.1,37.0,55,30.19,7.0,South,4.6,-,N/A,,Clear,190,2012-11-09 20:56:00
4:56 PM,48.9,36.0,61,30.19,8.0,South,4.6,-,N/A,,Clear,190,2012-11-09 21:56:00
5:56 PM,37.0,33.1,86,30.19,7.0,South,3.5,-,N/A,,Clear,170,2012-11-09 22:56:00
6:56 PM,39.9,34.0,79,30.20,7.0,SSW,3.5,-,N/A,,Partly Cloudy,200,2012-11-09 23:56:00
7:56 PM,42.1,34.0,73,30.19,8.0,South,4.6,-,N/A,,Scattered Clouds,190,2012-11-10 00:56:00
8:56 PM,42.1,36.0,79,30.18,7.0,South,4.6,-,N/A,,Overcast,180,2012-11-10 01:56:00
9:56 PM,45.0,36.0,71,30.17,9.0,SSW,4.6,-,N/A,,Overcast,200,2012-11-10 02:56:00
10:56 PM,46.9,36.0,66,30.16,10.0,SSW,9.2,-,N/A,,Overcast,210,2012-11-10 03:56:00
11:56 PM,48.0,35.1,61,30.14,10.0,SSW,12.7,19.6,N/A,,Overcast,210,2012-11-10 04:56:00